This demonstration page uses our WeatherBlox Daily Observations layout. Learn more.

36.17497, -115.13722

Hourly Observations for June 29, 2020

Temp ( °F °C ) Dew Point ( °F °C ) Humidity (%) Winds ( mph kmh ) Pressure ( in mb ) Visibility ( mi km ) Precip ( " mm )
12:53 am 00:53 Clear 81 27.2 30 -1.1 16 16 SSW 18 30 29.43 997 10 16.0934 0 0
1:53 am 01:53 Clear 79 26.1 31 -0.6 17 17 SW 16 26 29.47 998 10 16.0934 0 0
2:53 am 02:53 Clear 80 26.7 29 -1.7 15 15 W 15 24 29.5 999 10 16.0934 0 0
3:53 am 03:53 Clear 78 25.6 29 -1.7 16 16 W 18 30 29.54 1000 10 16.0934 0 0
4:53 am 04:53 Clear 77 25 29 -1.7 17 17 WNW 16 26 29.57 1002 10 16.0934 0 0
5:53 am 05:53 Sunny 75 23.9 29 -1.7 18 18 NW 12 19 29.62 1003 10 16.0934 0 0
6:53 am 06:53 Sunny 76 24.4 29 -1.7 18 18 N 8 13 29.66 1004 10 16.0934 0 0
7:53 am 07:53 Sunny 78 25.6 27 -2.8 15 15 NW 13 20 29.68 1005 10 16.0934 0 0
8:53 am 08:53 Sunny 80 26.7 28 -2.2 15 15 NE 10 17 29.7 1006 10 16.0934 0 0
9:53 am 09:53 Sunny 80 26.7 27 -2.8 14 14 VRB 3 6 29.73 1007 10 16.0934 0 0
10:53 am 10:53 Sunny 83 28.3 24 -4.4 11 11 W 8 13 29.73 1007 10 16.0934 0 0
11:53 am 11:53 Sunny 85 29.4 24 -4.4 11 11 N 13 20 29.73 1007 10 16.0934 0 0
12:53 pm 12:53 Sunny 85 29.4 25 -3.9 11 11 VRB 5 7 29.73 1007 10 16.0934 0 0
1:53 pm 13:53 Sunny 85 29.4 24 -4.4 11 11 WSW 9 15 29.74 1007 10 16.0934 0 0
2:53 pm 14:53 Sunny 85 29.4 24 -4.4 11 11 VRB 3 6 29.72 1006 10 16.0934 0 0
3:53 pm 15:53 Sunny 87 30.6 24 -4.4 10 10 W 12 19 29.72 1006 10 16.0934 0 0
4:53 pm 16:53 Sunny 87 30.6 24 -4.4 10 10 SE 5 7 29.71 1006 10 16.0934 0 0
5:53 pm 17:53 Sunny 89 31.7 23 -5 9 9 Calm 29.71 1006 10 16.0934 0 0
6:53 pm 18:53 Sunny 89 31.7 12 -11.1 5 5 NNW 14 22 29.72 1007 10 16.0934 0 0
7:53 pm 19:53 Sunny 86 30 11 -11.7 6 6 NNW 9 15 29.74 1007 10 16.0934 0 0
8:53 pm 20:53 Clear 84 28.9 10 -12.2 6 6 NW 7 11 29.76 1008 10 16.0934 0 0
9:53 pm 21:53 Clear 83 28.3 12 -11.1 7 7 W 5 7 29.79 1009 10 16.0934 0 0
10:53 pm 22:53 Clear 80 26.7 20 -6.7 10 10 W 7 11 29.8 1009 10 16.0934 0 0
11:53 pm 23:53 Clear 76 24.4 18 -7.8 11 11 NNW 7 11 29.82 1010 10 16.0934 0 0

Powered by AerisWeather